This is the latest recevied weather packets stored in our database for station/object K5GHS-1. If no packets are shown the sender has not sent any weather packets the latest 10 day(s).
| Time | Temp. | Humidity | Pressure | Rain* | Wind** | Luminosity | Snow |
|---|---|---|---|---|---|---|---|
| 1777985327 | 22.78° C | 84% | 1002.7 hPa | 0 mm | - | 35 W/m² | - |
| 1777984719 | 22.22° C | 84% | 1002.5 hPa | 0 mm | - | 29 W/m² | - |
| 1777984416 | 22.22° C | 84% | 1002.3 hPa | 0 mm | - | 20 W/m² | - |
| 1777984112 | 22.78° C | 84% | 1002.4 hPa | 0 mm | - | 19 W/m² | - |
| 1777983810 | 22.22° C | 84% | 1002.4 hPa | 0 mm | - | 19 W/m² | - |
| 1777983506 | 22.22° C | 84% | 1002.3 hPa | 0 mm | - | 12 W/m² | - |
| 1777982294 | 22.22° C | 84% | 1002.1 hPa | 0 mm | - | 4 W/m² | - |
| 1777981082 | 22.22° C | 84% | 1002.2 hPa | 0 mm | - | 0 W/m² | - |
| 1777980779 | 22.22° C | 84% | 1002 hPa | 0 mm | - | 0 W/m² | - |
| 1777979867 | 21.67° C | 86% | 1002 hPa | 0 mm | - | 0 W/m² | - |
| 1777979563 | 21.67° C | 86% | 1001.8 hPa | 0 mm | - | 0 W/m² | - |
| 1777979259 | 21.67° C | 85% | 1001.9 hPa | 0 mm | - | 0 W/m² | - |
| 1777978957 | 21.67° C | 85% | 1001.9 hPa | 0 mm | - | 0 W/m² | - |
| 1777978653 | 21.67° C | 85% | 1002.2 hPa | 0 mm | - | 0 W/m² | - |
| 1777978046 | 22.22° C | 85% | 1001.7 hPa | 0 mm | - | 0 W/m² | - |
| 1777977137 | 22.22° C | 85% | 1001.7 hPa | 0 mm | - | 0 W/m² | - |
| 1777976834 | 22.22° C | 85% | 1001.9 hPa | 0 mm | - | 0 W/m² | - |
| 1777976532 | 22.22° C | 84% | 1001.9 hPa | 0 mm | - | 0 W/m² | - |
| 1777976231 | 22.22° C | 84% | 1001.8 hPa | 0 mm | - | 0 W/m² | - |
| 1777975926 | 22.22° C | 84% | 1002.1 hPa | 0 mm | - | 0 W/m² | - |
| 1777975623 | 22.22° C | 85% | 1001.9 hPa | 0 mm | - | 0 W/m² | - |
| 1777975320 | 22.22° C | 85% | 1002 hPa | 0 mm | - | 0 W/m² | - |
| 1777974714 | 22.22° C | 85% | 1001.9 hPa | 0 mm | - | 0 W/m² | - |
| 1777974106 | 21.67° C | 85% | 1002 hPa | 0 mm | - | 0 W/m² | - |
| 1777973802 | 21.67° C | 85% | 1002.1 hPa | 0 mm | - | 0 W/m² | - |
* Rain latest hour (hover to see other rain measurements)
** Current wind speed in m/s (hover to see current wind gust speed)